[Iaude] MPEC U13: 2016 TT92 [a=2.34,e=0.57,i=1.2,H=26.3]

mpec at si.edu mpec at si.edu
Tue Oct 18 22:22:23 EDT 2016


M.P.E.C. 2016-U13                                Issued 2016 Oct. 19, 02:18 UT
 
     The Minor Planet Electronic Circulars contain information on unusual
         minor planets and routine data on comets.  They are published
    on behalf of Division F of the International Astronomical Union by the
          Minor Planet Center, Smithsonian Astrophysical Observatory,
                          Cambridge, MA 02138, U.S.A.

             Prepared using the Tamkin Foundation Computer Network

                              MPC at CFA.HARVARD.EDU
            URL http://www.minorplanetcenter.net/    ISSN 1523-6714


                                   2016 TT92
 
Observations:
     K16T92T  C2016 10 06.26715 21 36 52.361+05 10 16.03         19.5 wLEU013F51
     K16T92T  C2016 10 06.27897 21 37 23.996+05 15 04.25         19.3 wLEU013F51
     K16T92T  C2016 10 06.29084 21 37 55.863+05 19 54.68         19.5 wLEU013F51
     K16T92T  C2016 10 06.30279 21 38 27.903+05 24 46.21         19.6 wLEU013F51
     K16T92T  C2016 10 09.30108 00 09 40.249+23 01 57.65         18.8 iLEU013F51
     K16T92T  C2016 10 09.31333 00 10 12.127+23 04 50.91         19.0 iLEU013F51
     K16T92T  C2016 10 09.32564 00 10 43.976+23 07 43.00         18.9 iLEU013F51
     K16T92T  C2016 10 09.33797 00 11 15.775+23 10 33.82         18.9 iLEU013F51
     K16T92T  C2016 10 10.46627 00 57 40.375+26 27 36.64         19.4 wLEU013F51
     K16T92T  C2016 10 10.47895 00 58 06.664+26 29 11.36         19.4 wLEU013F51
     K16T92T  C2016 10 10.49038 00 58 30.362+26 30 35.53         19.4 wLEU013F51
     K16T92T* C2016 10 13.24969 02 14 33.35 +29 26 31.6          19.7 VqEU013G96
     K16T92T  C2016 10 13.25480 02 14 38.94 +29 26 40.5          19.8 VqEU013G96
     K16T92T  C2016 10 13.25860 02 14 43.12 +29 26 47.0          20.1 VqEU013G96
     K16T92T  C2016 10 13.26376 02 14 48.66 +29 26 56.0          19.8 VqEU013G96
     K16T92T  C2016 10 13.29844 02 15 26.03 +29 27 51.7          20.2 VqEU013G96
     K16T92T  C2016 10 13.29901 02 15 26.59 +29 27 52.7          19.9 VqEU013G96
     K16T92T  C2016 10 13.30048 02 15 28.18 +29 27 54.7          20.2 VqEU013G96
     K16T92T  C2016 10 13.30090 02 15 28.61 +29 27 55.8          20.3 VqEU013G96
     K16T92T  C2016 10 14.27160 02 32 29.57 +29 43 07.5          19.8 RoEU013926
     K16T92T  C2016 10 14.27417 02 32 31.79 +29 43 10.4          20.0 RoEU013926
     K16T92T  C2016 10 14.27675 02 32 33.99 +29 43 12.3          19.8 RoEU013926
 
Observer details:
926 Tenagra II Observatory.  Observers M. Schwartz, P. R. Holvorcem.  Measurer
    M. Schwartz.  0.81-m f/7 Ritchey-Chretien + CCD.
F51 Pan-STARRS 1, Haleakala.  Observers B. Gibson, T. Goggia, S. Kahale,
    A. Schultz, M. Willman.  Measurers K. Chambers, S. Chastel, L. Denneau,
    H. Flewelling, M. Huber, E. Lilly, E. Magnier, R. Wainscoat, C. Waters,
    R. Weryk.  1.8-m Ritchey-Chretien + CCD.
G96 Mt. Lemmon Survey.  Observer R. G. Matheny.  Measurers E. J. Christensen,
    D. C. Fuls, A. R. Gibbs, A. D. Grauer, J. A. Johnson, R. A. Kowalski,
    S. M. Larson, G. J. Leonard, R. G. Matheny, R. L. Seaman, F. C. Shelly.
    1.5-m reflector + 10K CCD.
 
Orbital elements:
2016 TT92                                                Earth MOID = 0.0006 AU
Epoch 2016 July 31.0 TT = JDT 2457600.5                 MPC
M 344.43598              (2000.0)            P               Q
n   0.27456237     Peri.    4.50533     +0.99996615     +0.00804183
a   2.3444557      Node   355.03290     -0.00803737     +0.90929051
e   0.5719922      Incl.    1.15270     -0.00176227     +0.41608424
P   3.59           H   26.3           G   0.15           U   5
Residuals in seconds of arc
161006 F51  0.2-  0.1-    161010 F51  0.1-  0.1+    161013 G96  0.2-  0.1-
161006 F51  0.3-  0.4-    161010 F51  0.1-  0.0     161013 G96  0.0   0.3-
161006 F51  0.5+  0.3+    161010 F51  0.1+  0.1+    161013 G96  0.2-  0.1+
161006 F51  0.0   0.1+    161013 G96  0.1-  0.0     161014 926  0.2-  0.4-
161009 F51  0.0   0.0     161013 G96  0.1+  0.1-    161014 926  0.0   0.2+
161009 F51  0.3+  0.2+    161013 G96  0.6+  0.1-    161014 926  0.1-  0.1-
161009 F51  0.1-  0.0     161013 G96  0.2-  0.0
161009 F51  0.3-  0.1-    161013 G96  0.4+  0.2-

Ephemeris:
2016 TT92                a,e,i = 2.34, 0.57, 1                   q = 1.0034
Date    TT    R. A. (2000) Decl.     Delta      r     Elong.  Phase     V
2016 09 19    17 40 37.9 -24 13 50   0.08633 1.0072    89.3    85.8    24.0
...
2016 10 04    20 08 03.2 -07 34 33   0.02420 1.0093   111.0    67.7    20.6
...
2016 10 12    01 45 55.4 +28 40 48   0.02976 1.0254   157.1    22.3    19.8
...
2016 10 18    03 13 19.7 +29 41 31   0.05522 1.0439   149.0    29.5    21.4
2016 10 19    03 20 15.2 +29 35 01   0.05980 1.0475   148.7    29.6    21.6
2016 10 20    03 26 05.7 +29 27 46   0.06445 1.0513   148.6    29.6    21.7
...
2016 10 26    03 47 06.2 +28 41 20   0.09319 1.0763   150.7    26.9    22.5
...
2016 11 03    03 57 15.5 +27 44 09   0.1339  1.1163   156.8    20.5    23.2
...
2016 11 18    03 59 30.4 +26 10 59   0.2211  1.2073   170.9     7.4    24.0

A. U. Tomatic                (C) Copyright 2016 MPC           M.P.E.C. 2016-U13




More information about the Iaude mailing list